ECHOSTAR 21 (42749 NORAD) Tracking and Keplerian Element Data

This shows tracking and keplerian element data for the satellite.

Feedback or suggestion? Click here.




ElementValue
Catalog42749
NameECHOSTAR 21
Epoch Orbit562
Epoch Day348.61814344
Epoch Year2018
RAAN316.0004
Inclination6.5597
Eccentricity0.0002221
Argument of Perigee283.2518
Mean Anonmoly76.7935
Mean Motion1.00271223
Decay Rate7.1E-07
L11 42749U 17032A 18348.61814344 .00000071 00000-0 00000-0 0 9992
L22 42749 6.5597 316.0004 0002221 283.2518 76.7935 1.00271223 5628

Live tracking and technical data element details for ECHOSTAR 21 (NORAD 42749). ECHOSTAR 21 can be tracked NOW for your location showing map with azimuth and elevation plus other details from your city location.

Track the satellite on the map from your city or location and see movement details for azimuth, elevation, latitude, longitude, range, height, and movement on the map or in text.







IsCatalogInMostPopularTable: catalog: 42749, numindb: 142
Update: records affected: 1



GetName: 42749 ECHOSTAR 21

Hit Count: updated at: Sat, 15 Dec 2018 13:29:56 GMT